Weather History for Rome, NY

Change the Weather History Date:

Sunday, February 17, 2013

  Actual Average Record
Temperature  
Mean Temperature 14 °F -  
Max Temperature 19 °F 34 °F 50 °F (1981)
Min Temperature 9 °F 17 °F -11 °F (2014)
Degree Days  
Heating Degree Days 51    
Moisture  
Dew Point 2 °F    
Average Humidity 62    
Maximum Humidity 84    
Minimum Humidity 45    
Precipitation  
Precipitation 0.00 in - - ()
Sea Level Pressure  
Sea Level Pressure 29.92 in    
Wind  
Wind Speed 11 mph (NW)    
Max Wind Speed 26 mph    
Max Gust Speed 33 mph    
Visibility 10 miles    
Events      
Averages and records for this station are not official NWS values.
T = Trace of Precipitation, MM = Missing Value Source: NWS Daily Summary

Daily Weather History Graph

Daily Weather History Graph

Search for Another Location

Airport:

Trip Planner

Search our weather history database for the weather conditions in past years. The results will help you decide how hot, cold, wet, or windy it might be!

Date:

Astronomy

Feb. 17, 2013 Rise Set
Actual Time 6:56 AM EST 5:35 PM EST
Civil Twilight 6:27 AM EST 6:04 PM EST
Nautical Twilight 5:53 AM EST 6:37 PM EST
Astronomical Twilight 5:20 AM EST 7:10 PM EST
Moon 10:34 AM EST (2/17) 12:41 AM EST (2/17)
Length of Visible Light 11h 37m
Length of Day
10h 39m
Waxing Crescent, 49% of the Moon is Illuminated
Feb 17
Waxing Crescent
Feb 17
First Quarter
Feb 25
Full
Mar 4
Last Quarter
Mar 11
New

Hourly Weather History & Observations

Time (EST) Temp. Windchill Dew Point Humidity Pressure Visibility Wind Dir Wind Speed Gust Speed Precip Events Conditions
12:53 AM 18.0 °F 9.8 °F 1.9 °F 50% 29.91 in 10.0 mi NNE 5.8 mph - N/A   Clear
1:53 AM 15.1 °F 6.4 °F 3.9 °F 61% 29.89 in 10.0 mi NW 5.8 mph - N/A   Clear
2:53 AM 14.0 °F 2.9 °F 3.0 °F 62% 29.88 in 10.0 mi WNW 8.1 mph - N/A   Clear
3:53 AM 12.9 °F 1.6 °F 1.9 °F 62% 29.89 in 10.0 mi NW 8.1 mph - N/A   Clear
4:53 AM 12.9 °F 6.9 °F -0.0 °F 56% 29.89 in 10.0 mi Variable 3.5 mph - N/A   Clear
5:53 AM 10.9 °F 0.2 °F -0.0 °F 61% 29.90 in 10.0 mi NW 6.9 mph - N/A   Clear
6:53 AM 10.0 °F -1.9 °F -0.0 °F 64% 29.91 in 10.0 mi NW 8.1 mph - N/A   Clear
7:53 AM 9.0 °F -0.9 °F -0.9 °F 64% 29.91 in 10.0 mi NNW 5.8 mph - N/A   Clear
8:53 AM 10.9 °F -2.6 °F -0.0 °F 61% 29.91 in 10.0 mi NNW 10.4 mph - 0.00 in   Clear
9:53 AM 14.0 °F 0.5 °F -0.0 °F 54% 29.90 in 10.0 mi NW 11.5 mph - N/A   Clear
10:53 AM 18.0 °F 1.7 °F 1.0 °F 48% 29.88 in 10.0 mi WNW 19.6 mph - N/A   Clear
11:53 AM 19.0 °F 3.2 °F 1.0 °F 46% 29.86 in 10.0 mi WNW 19.6 mph - N/A   Clear
12:53 PM 18.0 °F 0.6 °F -0.0 °F 45% 29.86 in 10.0 mi West 23.0 mph 32.2 mph N/A   Clear
1:53 PM 17.1 °F 0.1 °F 1.9 °F 52% 29.88 in 10.0 mi West 20.7 mph 31.1 mph N/A   Clear
2:53 PM 15.1 °F -4.4 °F 3.0 °F 59% 29.91 in 10.0 mi West 26.5 mph 33.4 mph N/A   Clear
3:53 PM 14.0 °F -4.7 °F 3.0 °F 62% 29.92 in 10.0 mi West 23.0 mph 32.2 mph N/A   Scattered Clouds
4:34 PM 12.9 °F -6.1 °F 3.9 °F 67% 29.90 in 10.0 mi WNW 23.0 mph 32.2 mph N/A   Mostly Cloudy
4:53 PM 12.9 °F -5.7 °F 3.9 °F 67% 29.94 in 10.0 mi WNW 21.9 mph 27.6 mph N/A   Scattered Clouds
5:41 PM 12.0 °F -4.0 °F 3.9 °F 70% 29.93 in 10.0 mi WNW 15.0 mph - N/A   Mostly Cloudy
5:53 PM 12.0 °F -3.4 °F 3.9 °F 70% 29.97 in 10.0 mi WNW 13.8 mph 23.0 mph N/A   Overcast
6:53 PM 10.9 °F -1.8 °F 6.1 °F 81% 29.99 in 9.0 mi WNW 9.2 mph - N/A   Overcast
7:53 PM 10.9 °F -0.8 °F 7.0 °F 84% 30.01 in 7.0 mi WNW 8.1 mph - 0.00 in   Overcast
8:53 PM 12.0 °F -2.7 °F 8.1 °F 84% 30.02 in 10.0 mi West 12.7 mph - 0.00 in   Clear
10:53 PM 10.0 °F -5.2 °F 1.0 °F 67% 30.06 in 10.0 mi NW 12.7 mph - N/A   Overcast